W7KKE-3 Weather Reports


Display with metric or nautical units.
time (UTC)temp
F
wind
direction
speed
MPH
gust
MPH
rain 1hr
in
rain 24hr
in
rain mn
in
humidity
%
barometer
mb
20141030180706 60 123 1.0 5.0 0.00 0.00 0.00 94 1010.7
20141030180205 60 89 1.0 5.0 0.00 0.01 0.00 94 1010.7
20141030175705 60 78 0.0 4.0 0.00 0.01 0.00 94 1010.7
20141030175205 60 124 0.0 5.0 0.00 0.01 0.00 94 1010.7
20141030174705 60 117 0.0 5.0 0.00 0.01 0.00 95 1010.6
20141030172205 60 0 0.0 0.0 0.00 0.01 0.00 95 1010.6
20141030171705 60 89 0.0 0.0 0.00 0.01 0.00 95 1010.6
20141030171205 60 7 0.0 0.0 0.00 0.01 0.00 95 1010.7
20141030170705 60 112 0.0 3.0 0.00 0.01 0.00 95 1010.7
20141030170205 60 63 1.0 3.0 0.00 0.01 0.00 95 1010.6
20141030165705 60 93 0.0 3.0 0.00 0.01 0.00 95 1010.7
20141030165205 60 33 0.0 2.0 0.00 0.01 0.00 95 1011.0
20141030164705 60 35 0.0 2.0 0.00 0.01 0.00 95 1011.2
20141030164205 60 96 0.0 5.0 0.00 0.01 0.00 95 1011.4
20141030163706 60 84 0.0 5.0 0.00 0.01 0.00 95 1011.4
20141030163205 60 113 0.0 5.0 0.00 0.01 0.00 95 1011.4
20141030162705 60 145 1.0 3.0 0.00 0.01 0.00 95 1011.2
20141030162205 60 89 0.0 3.0 0.00 0.01 0.00 95 1011.2
20141030161705 60 0 1.0 1.0 0.00 0.01 0.00 95 1011.5
20141030161205 60 0 0.0 4.0 0.00 0.01 0.00 95 1011.7
20141030160705 60 119 0.0 4.0 0.00 0.01 0.00 95 1011.6
20141030160206 59 131 0.0 4.0 0.00 0.01 0.00 95 1011.4
20141030155705 59 0 0.0 3.0 0.00 0.01 0.00 95 1011.3
20141030155205 59 77 0.0 3.0 0.00 0.01 0.00 95 1011.3
20141030154705 59 88 0.0 5.0 0.00 0.01 0.00 95 1011.1
20141030154205 59 113 0.0 5.0 0.00 0.01 0.00 95 1010.9
20141030153705 59 336 0.0 5.0 0.00 0.01 0.00 95 1010.7
20141030153205 59 117 1.0 4.0 0.00 0.01 0.00 95 1010.6
20141030152705 59 166 0.0 4.0 0.00 0.01 0.00 95 1010.5
20141030152205 59 114 0.0 4.0 0.00 0.01 0.00 95 1010.4
20141030151705 59 106 2.0 3.0 0.00 0.01 0.00 95 1010.5
20141030151205 59 131 0.0 3.0 0.00 0.01 0.00 95 1010.5
20141030150705 59 78 0.0 3.0 0.00 0.01 0.00 95 1010.6
20141030150205 59 91 0.0 3.0 0.00 0.01 0.00 95 1010.7
20141030145705 59 0 0.0 0.0 0.00 0.01 0.00 95 1011.1
20141030145205 59 0 0.0 0.0 0.00 0.01 0.00 95 1011.0
20141030144705 59 102 0.0 2.0 0.00 0.01 0.00 95 1011.0
20141030144205 59 75 0.0 2.0 0.00 0.01 0.00 95 1010.9
20141030143705 59 72 0.0 2.0 0.00 0.01 0.00 95 1011.2
20141030143205 59 109 0.0 4.0 0.00 0.01 0.00 95 1011.3
20141030142705 59 148 0.0 4.0 0.00 0.01 0.00 95 1011.2
20141030142206 59 96 0.0 4.0 0.00 0.01 0.00 94 1011.2
20141030141705 59 98 1.0 3.0 0.00 0.01 0.00 95 1011.2
20141030141205 59 103 0.0 2.0 0.00 0.01 0.00 94 1011.2
20141030140705 59 64 0.0 2.0 0.00 0.01 0.00 94 1011.2
20141030140205 59 116 0.0 5.0 0.00 0.03 0.00 94 1011.2
20141030135705 59 127 0.0 5.0 0.00 0.03 0.00 94 1011.1
20141030135205 59 127 2.0 5.0 0.00 0.03 0.00 94 1011.0
20141030134705 59 91 0.0 4.0 0.00 0.03 0.00 94 1011.1
20141030134205 59 19 1.0 3.0 0.00 0.03 0.00 94 1011.3
20141030133705 59 93 0.0 3.0 0.00 0.03 0.00 94 1011.5
20141030133205 59 93 0.0 2.0 0.00 0.03 0.00 94 1011.4
20141030132705 59 103 0.0 2.0 0.00 0.03 0.00 94 1011.4
20141030132205 59 71 0.0 0.0 0.00 0.03 0.00 94 1011.6
20141030131705 59 28 0.0 3.0 0.00 0.03 0.00 94 1011.6
20141030131205 59 81 0.0 3.0 0.00 0.03 0.00 94 1011.7
20141030130705 59 86 0.0 3.0 0.00 0.03 0.00 94 1011.8
20141030130205 59 82 0.0 4.0 0.00 0.05 0.00 94 1011.9
20141030125705 59 67 0.0 4.0 0.00 0.05 0.00 94 1011.9
20141030125205 59 102 1.0 4.0 0.00 0.05 0.00 94 1011.8
20141030124705 59 112 0.0 3.0 0.00 0.05 0.00 94 1011.7
20141030124205 59 79 0.0 3.0 0.00 0.05 0.00 94 1011.5
20141030123705 59 123 0.0 2.0 0.00 0.05 0.00 94 1011.8
20141030123205 59 126 0.0 2.0 0.00 0.05 0.00 94 1011.8
20141030122705 59 123 1.0 2.0 0.00 0.05 0.00 94 1012.0
20141030122205 59 175 0.0 4.0 0.00 0.05 0.00 94 1012.3
20141030121705 59 99 0.0 4.0 0.00 0.05 0.00 93 1012.0
20141030121205 59 109 0.0 4.0 0.00 0.05 0.00 93 1012.0
20141030120705 59 141 1.0 4.0 0.00 0.05 0.00 93 1011.9
20141030120205 59 117 1.0 4.0 0.00 0.05 0.00 93 1011.9
20141030115705 59 110 0.0 4.0 0.00 0.05 0.00 94 1011.7
20141030115205 59 148 0.0 4.0 0.00 0.05 0.00 94 1011.6
20141030114705 59 124 0.0 4.0 0.00 0.05 0.00 94 1011.7
20141030114205 59 123 0.0 4.0 0.00 0.05 0.00 94 1011.8
20141030113705 59 109 0.0 4.0 0.00 0.05 0.00 94 1011.9
20141030113205 59 121 1.0 4.0 0.00 0.05 0.00 94 1011.9
20141030112705 59 106 2.0 4.0 0.00 0.05 0.00 94 1012.0
20141030112205 59 147 0.0 4.0 0.00 0.05 0.00 94 1012.1
20141030111705 59 117 0.0 7.0 0.00 0.05 0.00 94 1012.1
20141030111206 59 131 0.0 7.0 0.00 0.05 0.00 94 1012.3
20141030110705 59 11 0.0 7.0 0.00 0.05 0.00 94 1012.4
20141030110206 59 119 1.0 7.0 0.00 0.05 0.00 94 1012.4
20141030105705 59 130 2.0 7.0 0.00 0.05 0.00 94 1012.7
20141030105205 59 78 0.0 7.0 0.00 0.05 0.00 94 1012.7
20141030104705 59 107 1.0 7.0 0.00 0.05 0.00 94 1012.7
20141030104205 59 92 2.0 7.0 0.00 0.05 0.00 94 1012.7
20141030103705 59 98 1.0 6.0 0.00 0.05 0.00 94 1012.9
20141030103205 59 120 0.0 4.0 0.00 0.05 0.00 94 1012.9
20141030102705 58 149 0.0 6.0 0.00 0.05 0.00 94 1012.8
20141030102205 59 92 0.0 6.0 0.00 0.05 0.00 94 1012.8
20141030101706 58 93 1.0 6.0 0.00 0.05 0.00 94 1012.8
20141030101205 59 138 1.0 6.0 0.00 0.05 0.00 94 1012.8
20141030100705 59 102 0.0 8.0 0.00 0.05 0.00 94 1012.8
20141030100205 58 145 0.0 8.0 0.00 0.08 0.00 94 1012.9
20141030095705 58 117 2.0 8.0 0.00 0.08 0.00 94 1012.9
20141030095205 58 128 1.0 4.0 0.00 0.08 0.00 94 1012.9
20141030094705 59 88 2.0 3.0 0.00 0.08 0.00 94 1013.0
20141030094205 58 100 0.0 4.0 0.00 0.08 0.00 94 1013.0
20141030093705 58 126 0.0 4.0 0.00 0.08 0.00 94 1013.1
20141030093206 58 126 0.0 4.0 0.00 0.08 0.00 94 1013.2
20141030092705 59 196 1.0 4.0 0.00 0.08 0.00 94 1013.4
20141030092205 59 121 0.0 3.0 0.00 0.08 0.00 94 1013.6
20141030091705 59 30 0.0 4.0 0.00 0.08 0.00 94 1013.7
20141030091205 59 58 0.0 4.0 0.00 0.08 0.00 94 1013.6
20141030090705 59 148 0.0 4.0 0.00 0.08 0.00 94 1013.7
20141030084706 59 169 0.0 3.0 0.00 0.12 0.00 94 1013.7
20141030084205 59 105 0.0 8.0 0.00 0.12 0.00 94 1013.9
20141030083705 59 100 0.0 8.0 0.00 0.12 0.00 94 1013.9
20141030083205 59 121 0.0 8.0 0.00 0.12 0.00 94 1014.1
20141030082705 59 117 0.0 5.0 0.00 0.12 0.00 94 1014.1
20141030082205 59 98 1.0 4.0 0.00 0.12 0.00 94 1014.1
20141030080205 59 95 0.0 6.0 0.00 0.12 0.00 94 1014.4
20141030075705 59 142 0.0 6.0 0.00 0.12 0.00 94 1014.2
20141030075205 59 128 0.0 6.0 0.00 0.12 0.00 94 1014.2
20141030074705 59 154 0.0 6.0 0.00 0.12 0.00 94 1014.2
20141030074205 59 113 1.0 6.0 0.00 0.12 0.00 94 1014.2
20141030073705 59 126 0.0 6.0 0.00 0.12 0.00 94 1014.4
20141030071205 59 102 0.0 3.0 0.00 0.12 0.00 94 1014.7
20141030070706 59 128 0.0 3.0 0.00 0.12 0.00 94 1014.7
20141030070205 59 106 0.0 3.0 0.00 0.21 0.00 94 1014.7
20141030065708 59 86 0.0 3.0 0.00 0.21 0.01 94 1014.8
20141030065206 59 134 0.0 3.0 0.00 0.21 0.01 94 1014.9
20141030064707 59 103 0.0 2.0 0.00 0.21 0.01 94 1015.0
20141030064206 59 0 0.0 3.0 0.00 0.21 0.01 94 1015.2
20141030062707 59 0 0.0 4.0 0.00 0.21 0.01 94 1015.4
20141030062206 59 98 0.0 4.0 0.00 0.21 0.01 94 1015.4
20141030061707 58 138 0.0 4.0 0.00 0.21 0.01 94 1015.4
20141030061206 59 0 0.0 0.0 0.00 0.21 0.01 94 1015.4
20141030060708 58 0 0.0 0.0 0.00 0.21 0.01 94 1015.5
20141030060206 59 0 0.0 0.0 0.00 0.25 0.01 94 1015.6
20141030054206 59 0 0.0 0.0 0.00 0.25 0.01 94 1015.8
20141030053708 59 67 0.0 0.0 0.00 0.25 0.01 94 1015.8
20141030053206 59 84 0.0 4.0 0.00 0.25 0.01 94 1015.8
20141030052710 58 0 0.0 4.0 0.00 0.25 0.01 94 1015.8
20141030052206 59 114 0.0 4.0 0.00 0.25 0.01 94 1015.7
20141030051706 59 103 1.0 3.0 0.00 0.25 0.01 94 1015.8
20141030045708 59 0 0.0 0.0 0.00 0.27 0.01 94 1016.0
20141030045206 59 92 0.0 3.0 0.00 0.27 0.01 94 1015.9
20141030044708 59 78 0.0 3.0 0.00 0.27 0.01 94 1016.0
20141030044206 59 116 0.0 3.0 0.00 0.27 0.01 94 1016.1
20141030043708 59 72 0.0 1.0 0.00 0.27 0.01 94 1016.2
20141030043206 59 119 0.0 4.0 0.00 0.27 0.01 94 1016.2
20141030042706 59 91 0.0 4.0 0.00 0.27 0.01 94 1016.2
20141030042206 59 100 1.0 4.0 0.00 0.27 0.01 94 1016.3
20141030041706 59 96 1.0 3.0 0.00 0.27 0.01 94 1016.5
20141030041206 59 126 1.0 2.0 0.00 0.27 0.01 94 1016.5
20141030040707 59 95 0.0 2.0 0.00 0.27 0.01 94 1016.5
20141030040205 59 0 0.0 0.0 0.00 0.30 0.01 94 1016.7
20141030035707 59 0 0.0 0.0 0.00 0.30 0.01 94 1016.6
20141030035205 59 0 0.0 2.0 0.00 0.30 0.01 93 1016.6
20141030034205 59 89 0.0 2.0 0.00 0.30 0.01 93 1016.6
20141030033707 59 0 0.0 2.0 0.00 0.30 0.01 93 1016.7
20141030033205 59 0 0.0 2.0 0.00 0.30 0.01 93 1016.7
20141030032708 59 102 0.0 2.0 0.00 0.30 0.01 93 1016.7
20141030032205 59 89 0.0 0.0 0.00 0.30 0.01 93 1016.7
20141030031707 59 0 0.0 2.0 0.00 0.30 0.01 93 1016.8
20141030031205 59 0 0.0 2.0 0.00 0.30 0.01 93 1016.8
20141030030706 59 117 0.0 2.0 0.00 0.30 0.01 93 1016.8
20141030030205 59 0 0.0 0.0 0.00 0.31 0.01 93 1016.8
20141030025705 59 0 0.0 0.0 0.00 0.31 0.01 93 1016.8
20141030025205 59 0 0.0 0.0 0.00 0.31 0.01 93 1016.9
20141030024709 59 0 0.0 0.0 0.00 0.31 0.01 93 1017.0
20141030024205 59 133 0.0 3.0 0.00 0.31 0.01 93 1017.0
20141030023705 60 145 0.0 3.0 0.00 0.31 0.01 93 1016.9
20141030023205 59 85 0.0 3.0 0.00 0.31 0.01 93 1016.9
20141030022707 59 79 0.0 2.0 0.00 0.31 0.01 93 1017.0
20141030022206 60 120 0.0 2.0 0.00 0.31 0.01 93 1017.1
20141030021707 60 0 0.0 0.0 0.00 0.31 0.01 93 1017.2
20141030021205 60 0 0.0 3.0 0.00 0.31 0.01 93 1017.3
20141030020705 60 68 0.0 3.0 0.00 0.31 0.01 93 1017.3
20141030020205 60 123 0.0 3.0 0.00 0.37 0.01 93 1017.4
20141030015705 60 64 0.0 2.0 0.00 0.37 0.01 93 1017.5
20141030015206 60 0 0.0 2.0 0.00 0.37 0.01 93 1017.3
20141030014705 60 50 0.0 2.0 0.00 0.37 0.01 92 1017.4
20141030014205 60 0 0.0 1.0 0.00 0.37 0.01 92 1017.2
20141030013705 60 0 0.0 1.0 0.00 0.37 0.01 92 1017.1
20141030013205 60 86 0.0 1.0 0.00 0.37 0.01 92 1017.3
20141030012708 60 0 0.0 0.0 0.00 0.37 0.01 92 1017.4
20141030012205 61 0 0.0 0.0 0.00 0.37 0.01 92 1017.4
20141030011707 61 0 0.0 0.0 0.00 0.37 0.01 92 1017.5
20141030011205 61 0 0.0 0.0 0.00 0.37 0.01 92 1017.6
20141030010706 61 0 0.0 3.0 0.00 0.37 0.01 92 1017.6
20141030010205 61 0 0.0 3.0 0.00 0.37 0.01 92 1017.8
20141030005705 61 106 0.0 3.0 0.00 0.37 0.01 92 1017.6
20141030005205 61 0 0.0 0.0 0.00 0.37 0.01 92 1017.2
20141030004705 61 0 0.0 0.0 0.00 0.37 0.01 92 1017.5
20141030004205 61 0 0.0 0.0 0.00 0.37 0.01 92 1017.9
20141030003706 61 0 0.0 0.0 0.00 0.37 0.01 92 1017.9
20141030003205 62 0 0.0 0.0 0.00 0.37 0.01 91 1017.9
20141030002706 62 0 0.0 0.0 0.00 0.37 0.01 91 1018.0
20141030002206 62 0 0.0 0.0 0.00 0.37 0.01 91 1018.2
20141030001705 62 0 0.0 0.0 0.00 0.37 0.01 91 1018.2
20141030001205 62 0 0.0 0.0 0.00 0.37 0.01 91 1018.3
20141030000705 62 0 0.0 0.0 0.00 0.37 0.01 91 1018.4
20141030000205 62 0 0.0 0.0 0.00 0.37 0.01 91 1018.4
20141029235705 62 0 0.0 0.0 0.00 0.37 0.01 91 1018.6
20141029235205 62 0 0.0 0.0 0.00 0.37 0.01 91 1018.8
20141029234705 62 0 0.0 0.0 0.00 0.37 0.01 91 1018.7
20141029234205 62 0 0.0 0.0 0.00 0.37 0.01 91 1018.7
20141029233706 63 0 0.0 0.0 0.00 0.37 0.01 91 1018.6
20141029233205 63 0 0.0 0.0 0.00 0.37 0.01 91 1018.7
20141029232706 63 0 0.0 0.0 0.00 0.37 0.01 91 1018.7
20141029232205 63 0 0.0 0.0 0.00 0.37 0.01 91 1018.7
20141029231705 63 0 0.0 0.0 0.00 0.37 0.01 91 1018.7
20141029231205 63 0 0.0 0.0 0.00 0.37 0.01 91 1018.8
20141029230705 63 0 0.0 0.0 0.00 0.37 0.01 91 1018.9
20141029230205 63 0 0.0 0.0 0.00 0.37 0.01 91 1019.0
20141029225707 63 0 0.0 0.0 0.00 0.37 0.01 91 1019.0
20141029225206 63 130 0.0 0.0 0.00 0.37 0.01 91 1019.0
20141029224707 63 154 0.0 1.0 0.00 0.37 0.01 91 1018.9
20141029224205 63 64 0.0 1.0 0.00 0.37 0.01 91 1018.9
20141029223706 63 99 0.0 1.0 0.00 0.37 0.01 91 1019.0
20141029223205 63 0 0.0 0.0 0.00 0.37 0.01 91 1019.0
20141029222705 63 68 0.0 1.0 0.00 0.37 0.01 91 1019.0
20141029222205 63 0 0.0 1.0 0.00 0.37 0.01 91 1019.2
20141029221705 63 79 0.0 1.0 0.00 0.37 0.01 91 1019.3
20141029221204 63 135 0.0 3.0 0.00 0.37 0.01 91 1019.5
20141029220705 63 0 0.0 3.0 0.00 0.37 0.01 92 1019.6
20141029220205 63 95 0.0 3.0 0.00 0.37 0.01 92 1019.7
20141029215706 62 0 0.0 2.0 0.00 0.37 0.01 92
20141029215205 62 0 0.0 2.0 0.00 0.37 0.01 92
20141029214705 62 0 0.0 2.0 0.00 0.37 0.01 92
20141029214205 62 119 0.0 2.0 0.00 0.37 0.01 92
20141029213205 62 0 0.0 0.0 0.00 0.37 0.01 91
20141029212706 62 0 0.0 0.0 0.00 0.37 0.01 91
20141029212205 62 0 0.0 0.0 0.00 0.37 0.01 91
20141029211705 62 0 0.0 0.0 0.00 0.37 0.01 91
20141029211205 61 0 0.0 3.0 0.00 0.37 0.01 91
20141029210705 61 0 0.0 3.0 0.00 0.37 0.01 92
20141029210205 61 89 0.0 3.0 0.00 0.37 0.01 92
20141029205705 61 102 0.0 3.0 0.00 0.37 0.01 92
20141029205205 61 77 0.0 2.0 0.00 0.37 0.01 92
20141029204705 61 0 0.0 0.0 0.00 0.37 0.01 92
20141029204205 61 74 0.0 4.0 0.00 0.37 0.01 93
20141029203706 61 75 1.0 4.0 0.00 0.37 0.01 92
20141029202205 62 0 1.0 1.0 0.00 0.37 0.01 92
20141029201705 62 0 0.0 0.0 0.00 0.37 0.01 93
20141029201204 62 0 0.0 0.0 0.00 0.37 0.01 93
20141029200705 62 0 0.0 0.0 0.00 0.37 0.01 94
20141029200204 62 0 0.0 0.0 0.00 0.37 0.01 94
20141029195705 62 0 0.0 0.0 0.00 0.37 0.01 94
20141029195204 62 0 0.0 0.0 0.00 0.37 0.01 94
20141029194704 62 0 0.0 0.0 0.00 0.37 0.01 94
20141029193204 62 0 0.0 0.0 0.00 0.37 0.01 94
20141029192705 61 0 0.0 0.0 0.00 0.37 0.01 94
20141029192204 62 0 0.0 0.0 0.00 0.37 0.01 94
20141029191704 62 0 0.0 0.0 0.00 0.37 0.01 95
20141029191204 62 0 0.0 0.0 0.00 0.37 0.01 95
20141029190705 62 0 0.0 0.0 0.00 0.37 0.01 95
20141029190204 62 0 0.0 0.0 0.00 0.37 0.01 95
20141029184204 61 0 0.0 0.0 0.00 0.37 0.01 95
20141029183704 61 0 0.0 0.0 0.00 0.37 0.01 95
20141029183204 61 0 0.0 0.0 0.00 0.37 0.01 95
20141029182704 61 0 0.0 0.0 0.00 0.37 0.01 95
20141029182204 61 0 0.0 0.0 0.00 0.37 0.01 95
20141029181704 61 0 0.0 0.0 0.00 0.37 0.01 95